VIR9 LEMD-EGLL

Flight info

Callsign VIR9
Flight time N/A
Altitude 34000
Route SIE N858 DGO N867 NENEM DCT DIDIG UP87 ROXOG
Aircraft A35K/H-SDE2E3GHIJ3J4J5LM1ORWXY/LB1D1

Departure

Time 2026-05-05 22:33
Airport Adolfo Suárez Madrid–Barajas Airport (LEMD)

Arrival

Time N/A
Airport London Heathrow Airport (EGLL)
Time Latitude Longitude Altitude Speed Heading
2026-05-05 22:32 40.73325 -3.53417 12208 ft 261 kts
2026-05-05 22:33 40.75077 -3.53275 13059 ft 263 kts 358°
2026-05-05 22:33 40.76910 -3.53408 13788 ft 270 kts 349°
2026-05-05 22:33 40.78844 -3.53749 14175 ft 291 kts 348°
2026-05-05 22:33 40.80861 -3.54136 14530 ft 310 kts 348°
2026-05-05 22:34 40.83042 -3.54548 14904 ft 329 kts 348°
2026-05-05 22:34 40.85294 -3.54969 15278 ft 347 kts 348°
2026-05-05 22:34 40.87736 -3.55422 15646 ft 364 kts 349°
2026-05-05 22:34 40.90305 -3.55896 16058 ft 379 kts 349°
2026-05-05 22:35 40.92939 -3.56376 16712 ft 386 kts 349°
2026-05-05 22:35 40.95597 -3.56863 17483 ft 390 kts 348°
2026-05-05 22:35 40.98306 -3.57362 18307 ft 394 kts 348°
2026-05-05 22:35 41.08442 -3.59237 21093 ft 407 kts 346°
2026-05-05 22:36 41.20014 -3.58000 24095 ft 446 kts 12°
2026-05-05 22:36 41.31831 -3.51502 26440 ft 470 kts 16°
2026-05-05 22:36 41.44106 -3.44677 28710 ft 487 kts 15°
2026-05-05 22:36 41.56917 -3.37644 30666 ft 506 kts 15°
2026-05-05 22:37 41.70042 -3.30368 32431 ft 513 kts 16°
2026-05-05 22:37 41.83161 -3.23064 34060 ft 510 kts 16°
2026-05-05 22:37 41.96332 -3.15715 34061 ft 512 kts 16°
2026-05-05 22:38 42.22617 -3.00948 34057 ft 513 kts 17°
2026-05-05 22:38 42.49297 -2.88386 34058 ft 495 kts 356°
2026-05-05 22:39 42.76650 -2.89703 34053 ft 492 kts 352°
2026-05-05 22:39 43.04025 -2.91136 34053 ft 493 kts 353°
2026-05-05 22:40 43.31461 -2.93011 34053 ft 489 kts 345°
2026-05-05 22:40 43.57786 -3.01075 34030 ft 488 kts 344°
2026-05-05 22:41 43.84461 -3.09050 34019 ft 485 kts 346°
2026-05-05 22:41 44.10951 -3.12495 34009 ft 493 kts 13°
2026-05-05 22:42 44.37197 -3.01044 33993 ft 496 kts 15°
2026-05-05 22:42 44.63490 -2.89456 33986 ft 493 kts 16°
2026-05-05 22:43 44.89633 -2.77816 33971 ft 493 kts 17°
2026-05-05 22:43 45.15658 -2.66123 33964 ft 489 kts 16°
2026-05-05 22:44 45.41517 -2.54392 33959 ft 486 kts 17°
2026-05-05 22:44 45.67202 -2.42626 33949 ft 484 kts 17°
2026-05-05 22:45 45.92809 -2.30781 33943 ft 484 kts 18°
2026-05-05 22:45 46.18841 -2.21647 33931 ft 480 kts 10°
2026-05-05 22:46 46.45121 -2.15240 33936 ft 476 kts 10°
2026-05-05 22:46 46.71316 -2.08750 33931 ft 478 kts 10°
2026-05-05 22:47 46.97504 -2.02197 33931 ft 481 kts 10°
2026-05-05 22:47 47.24112 -1.96849 33935 ft 484 kts
2026-05-05 22:48 47.50971 -1.93429 33931 ft 484 kts
2026-05-05 22:48 47.77793 -1.89985 33935 ft 484 kts